Weather in Philadelphia

United States     39°57′04″N   75°09′50″W
temp.,
°C
wind,
m/s
gust,
m/s
humid.,
%
clouds,
%
prec.,
mm/h
press.,
hPa
HPBL,
m
26 may, thu
thu2623:00+14se3655100 0.0 1028486
02:00+13se2668100 0.0 1027383
05:00+13ese2677100 0.0 1026328
08:00+15se3569100 0.0 1026460
11:00+19sse3556100 0.0 1025918
14:00+19s3565100 0.0 1023880
17:00+20s3773100 0.0 1021807
20:00+19sse3981100 0.1 1020655
27 may, fri
fri2723:00+19sse4119190 0.1 1019582
02:00+18sse299776 0.1 1017377
05:00+18s3995100 0.0 1016412
08:00+20s41090100 0.0 1016464
11:00+26ssw5965100 0.0 10131223
14:00+24sw4885100 1.9 1013922
17:00+20s51294100 3.1 1012830
20:00+19sse41197100 8.0 1011793
28 may, sat
sat2823:00+19s61296100 1.4 1010941
02:00+18s41296100 1.6 1007588
05:00+18s3898100 0.0 1006363
08:00+18w369331 0.1 1007429
11:00+23w465516 0.0 10081432
14:00+25w46452 0.5 10071804
17:00+23wnw66608 0.2 10081194
20:00+20nw487269 0.3 1010644
29 may, sun
sun2923:00+18nw39784 0.0 1012442
02:00+17nnw28833 0.0 1013299
05:00+15nw258643 0.0 1015158
08:00+18nw236896 0.0 1017281
11:00+23nw22476 0.0 10181111
14:00+25wnw3338100 0.0 10171486
17:00+26w334091 0.0 10171374
20:00+22w236143 0.0 101866
30 may, mon
mon3023:00+20ssw24706 0.0 101984
02:00+18ssw258218 0.0 1019134
05:00+17sw1387100 0.0 101974
08:00+20sw3673100 0.0 1020321
11:00+26sw355599 0.0 1019815
14:00+31wsw464345 0.0 10171319
17:00+31w5746100 0.0 10161366
20:00+27sw376399 0.0 1016336